Regional Weather Roundup
Issued by NWS

Home | Current Version | Previous Version | Graphics & Text | Print | Product List | Glossary On
Versions: 1 2 3 4 5 6 7 8 9 10 11 12 13 14 15 16 17 18 19 20 21 22 23 24 25 26 27 28 29 30 31 32 33 34 35 36 37 38 39 40 41 42 43 44 45 46 47 48 49 50
000
ASUS43 KBIS 270510
RWRND

NORTH DAKOTA REGIONAL WEATHER ROUNDUP
NATIONAL WEATHER SERVICE BISMARCK ND
1100 PM CST MON JAN 26 2015

NOTE: "FAIR" INDICATES FEW OR NO CLOUDS BELOW 12,000 FEET WITH NO
SIGNIFICANT WEATHER AND/OR OBSTRUCTIONS TO VISIBILITY.


NDZ001>003-009>011-017-270600-
NORTHWEST NORTH DAKOTA

CITY           SKY/WX    TMP DP  RH WIND       PRES   REMARKS
WILLISTON      CLEAR     29  28  96 CALM      29.88S
MINOT          CLEAR     31  28  89 S6        29.90F
MINOT AFB      CLEAR     28  28  99 SE3       29.90F
$$

NDZ018>021-031>035-040>046-270600-
SOUTHWEST NORTH DAKOTA

CITY           SKY/WX    TMP DP  RH WIND       PRES   REMARKS
BISMARCK       CLEAR     31  29  92 E5        29.97F
DICKINSON      CLEAR     36  31  82 S10       29.89F
GARRISON         N/A     32  29  88 CALM      29.92F
HETTINGER ARPT CLEAR     31  27  85 CALM      29.94S
$$

NDZ004>008-012>016-024-026-027-054-270600-
NORTHEAST NORTH DAKOTA

CITY           SKY/WX    TMP DP  RH WIND       PRES   REMARKS
GRAND FORKS    FOG       25  23  93 E3        30.02R VSB 3/4
GRND FRKS AFB  CLEAR     21  21 100 SE3       30.02R
DEVILS LAKE      N/A     27  25  93 CALM      29.96S VSB 3/4
$$

NDZ022-023-025-028>030-036>039-047>053-270600-
SOUTHEAST NORTH DAKOTA

CITY           SKY/WX    TMP DP  RH WIND       PRES   REMARKS
FARGO          CLEAR     25  23  92 CALM      30.02S
JAMESTOWN      CLEAR     27  26  96 SW3       29.98S
$$



USA.gov is the U.S. government's official web portal to all federal, state and local government web resources and services.